M I D A S
Marine Information and Data Acquisition System
Tripno 1085 of the Zeeleeuw from 2006-05-17 11:36:38 to 2006-05-17 14:26:43
Back to CruiseResearch ActivitiesStationsMapUnderway DataData graphs

EquipmentUnitsComments
TimeDGPSUTC
LatitudeDGPSDM.mWGS84
LongitudeDGPSDM.mWGS84
SpeedMeteo Stationm/sRelative wind speed
DirectionMeteo StationdegRelative wind direction
TemperatureMeteo Stationdeg CelciusAir temperature
PressureMeteo StationPaAtmospheric pressure
HumidityMeteo Station%Relative humidity
Missing or incorrect values are displayed as -999
Metereological data collected by the RV Zeeleeuw from 2006-05-17 07:17:38 to 2006-05-17 14:41:29
                                                                                    Next 1000 lines
Time Latitude Longitude Speed Direction Temperature Pressure Humidity
2006-05-17 07:17:48 51°13.603 2°56.099 -999 42 11.4 101950 98
2006-05-17 07:17:54 51°13.603 2°56.099 -999 65 11.4 101950 98
2006-05-17 07:17:58 51°13.603 2°56.099 -999 62 11.4 101950 98
2006-05-17 07:18:03 51°13.603 2°56.099 -999 70 11.4 101950 98
2006-05-17 07:18:08 51°13.603 2°56.099 -999 63 11.4 101950 98
2006-05-17 07:18:14 51°13.603 2°56.099 -999 102 11.4 101950 98
2006-05-17 07:18:18 51°13.603 2°56.099 -999 102 11.4 101950 98
2006-05-17 07:18:23 51°13.603 2°56.099 -999 114 11.4 101950 98
2006-05-17 07:18:28 51°13.603 2°56.099 -999 100 11.4 101950 98
2006-05-17 07:18:33 51°13.603 2°56.099 -999 72 11.4 101950 98
2006-05-17 07:18:38 51°13.603 2°56.099 -999 81 11.4 101950 98
2006-05-17 07:18:44 51°13.603 2°56.099 -999 36 11.4 101950 98
2006-05-17 07:18:49 51°13.603 2°56.099 -999 26 11.4 101950 98
2006-05-17 07:18:53 51°13.603 2°56.099 -999 43 11.4 101950 98
2006-05-17 07:18:58 51°13.603 2°56.099 -999 48 11.4 101950 98
2006-05-17 07:19:04 51°13.603 2°56.099 -999 50 11.4 101950 98
2006-05-17 07:19:08 51°13.603 2°56.099 -999 48 11.4 101950 98
2006-05-17 07:19:12 51°13.603 2°56.099 -999 67 11.4 101950 98
2006-05-17 07:19:18 51°13.603 2°56.099 -999 74 11.5 101950 98
2006-05-17 07:19:24 51°13.603 2°56.099 -999 90 11.5 101950 98
2006-05-17 07:19:27 51°13.603 2°56.099 -999 86 11.5 101950 98
2006-05-17 07:19:34 51°13.603 2°56.099 -999 62 11.5 101950 98
2006-05-17 07:19:38 51°13.603 2°56.099 -999 76 11.5 101950 98
2006-05-17 07:19:43 51°13.603 2°56.099 -999 60 11.5 101950 98
2006-05-17 07:19:48 51°13.603 2°56.099 -999 63 11.5 101950 98
2006-05-17 07:19:54 51°13.603 2°56.099 -999 93 11.5 101950 98
2006-05-17 07:19:58 51°13.603 2°56.099 -999 68 11.5 101950 98
2006-05-17 07:20:04 51°13.603 2°56.099 -999 49 11.5 101950 98
2006-05-17 07:20:09 51°13.603 2°56.099 -999 62 11.4 101950 98
2006-05-17 07:20:14 51°13.603 2°56.099 -999 69 11.4 101950 98
2006-05-17 07:20:19 51°13.603 2°56.099 -999 87 11.4 101950 98
2006-05-17 07:20:24 51°13.603 2°56.099 -999 86 11.4 101950 98
2006-05-17 07:20:29 51°13.603 2°56.099 -999 84 11.5 101950 98
2006-05-17 07:20:34 51°13.603 2°56.099 -999 80 11.5 101950 98
2006-05-17 07:20:38 51°13.603 2°56.099 -999 92 11.5 101950 98
2006-05-17 07:20:44 51°13.604 2°56.099 -999 90 11.5 101950 98
2006-05-17 07:20:49 51°13.604 2°56.098 -999 91 11.5 101960 98
2006-05-17 07:20:54 51°13.604 2°56.098 -999 101 11.5 101960 98
2006-05-17 07:20:59 51°13.603 2°56.098 -999 99 11.5 101950 98
2006-05-17 07:21:04 51°13.603 2°56.098 -999 87 11.5 101950 98
2006-05-17 07:21:08 51°13.603 2°56.098 -999 79 11.5 101960 98
2006-05-17 07:21:13 51°13.603 2°56.098 -999 93 11.5 101960 98
2006-05-17 07:21:18 51°13.603 2°56.098 -999 114 11.5 101960 98
2006-05-17 07:21:24 51°13.603 2°56.098 -999 94 11.5 101960 98
2006-05-17 07:21:28 51°13.603 2°56.098 -999 95 11.5 101960 98
2006-05-17 07:21:34 51°13.603 2°56.098 -999 85 11.5 101960 98
2006-05-17 07:21:38 51°13.603 2°56.098 -999 95 11.5 101960 98
2006-05-17 07:21:44 51°13.603 2°56.098 -999 84 11.5 101960 98
2006-05-17 07:21:49 51°13.603 2°56.098 -999 89 11.5 101960 98
2006-05-17 07:21:54 51°13.603 2°56.098 -999 96 11.5 101960 98
2006-05-17 07:21:58 51°13.603 2°56.098 -999 95 11.5 101960 98
2006-05-17 07:22:03 51°13.603 2°56.098 -999 124 11.5 101960 98
2006-05-17 07:22:09 51°13.603 2°56.098 -999 91 11.5 101950 98
2006-05-17 07:22:14 51°13.603 2°56.098 -999 122 11.5 101950 98
2006-05-17 07:22:18 51°13.603 2°56.098 -999 105 11.5 101960 98
2006-05-17 07:22:23 51°13.603 2°56.098 -999 109 11.5 101960 98
2006-05-17 07:22:28 51°13.603 2°56.098 -999 87 11.5 101960 98
2006-05-17 07:22:34 51°13.603 2°56.098 -999 106 11.5 101960 98
2006-05-17 07:22:38 51°13.603 2°56.099 -999 104 11.5 101960 98
2006-05-17 07:22:42 51°13.603 2°56.098 -999 135 11.5 101960 98
2006-05-17 07:22:48 51°13.603 2°56.098 -999 122 11.5 101960 98
2006-05-17 07:22:54 51°13.603 2°56.099 -999 106 11.5 101960 98
2006-05-17 07:22:58 51°13.603 2°56.099 -999 91 11.5 101960 98
2006-05-17 07:23:04 51°13.603 2°56.099 -999 81 11.5 101960 98
2006-05-17 07:23:08 51°13.603 2°56.099 -999 88 11.5 101960 98
2006-05-17 07:23:13 51°13.603 2°56.099 -999 121 11.5 101960 98
2006-05-17 07:23:18 51°13.603 2°56.099 -999 132 11.5 101960 98
2006-05-17 07:23:23 51°13.603 2°56.099 -999 106 11.5 101960 98
2006-05-17 07:23:27 51°13.603 2°56.098 -999 114 11.5 101960 98
2006-05-17 07:23:33 51°13.603 2°56.098 -999 107 11.5 101960 98
2006-05-17 07:23:38 51°13.603 2°56.098 -999 120 11.5 101960 98
2006-05-17 07:23:44 51°13.603 2°56.098 -999 113 11.5 101960 98
2006-05-17 07:23:48 51°13.603 2°56.098 -999 111 11.5 101960 98
2006-05-17 07:23:54 51°13.603 2°56.098 -999 98 11.5 101960 98
2006-05-17 07:23:58 51°13.603 2°56.098 -999 107 11.5 101960 98
2006-05-17 07:24:02 51°13.603 2°56.099 -999 116 11.5 101960 98
2006-05-17 07:24:08 51°13.603 2°56.099 -999 110 11.5 101960 98
2006-05-17 07:24:14 51°13.603 2°56.099 -999 94 11.5 101960 98
2006-05-17 07:24:18 51°13.603 2°56.099 -999 104 11.4 101960 98
2006-05-17 07:24:24 51°13.603 2°56.099 -999 116 11.4 101960 98
2006-05-17 07:24:28 51°13.603 2°56.099 -999 125 11.5 101960 98
2006-05-17 07:24:32 51°13.603 2°56.099 -999 124 11.5 101960 98
2006-05-17 07:24:39 51°13.603 2°56.099 -999 121 11.4 101960 98
2006-05-17 07:24:44 51°13.603 2°56.099 -999 112 11.4 101960 98
2006-05-17 07:24:48 51°13.603 2°56.099 -999 109 11.5 101960 98
2006-05-17 07:24:54 51°13.603 2°56.099 -999 108 11.5 101960 98
2006-05-17 07:24:58 51°13.603 2°56.099 -999 103 11.4 101960 98
2006-05-17 07:25:03 51°13.603 2°56.099 -999 117 11.4 101960 98
2006-05-17 07:25:08 51°13.603 2°56.099 -999 120 11.4 101960 98
2006-05-17 07:25:14 51°13.603 2°56.099 -999 104 11.4 101960 98
2006-05-17 07:25:18 51°13.603 2°56.099 -999 105 11.4 101950 98
2006-05-17 07:25:24 51°13.603 2°56.099 -999 112 11.4 101950 98
2006-05-17 07:25:28 51°13.603 2°56.099 -999 118 11.5 101960 98
2006-05-17 07:25:33 51°13.603 2°56.099 -999 122 11.5 101960 98
2006-05-17 07:25:38 51°13.603 2°56.099 -999 123 11.4 101960 98
2006-05-17 07:25:44 51°13.602 2°56.099 -999 89 11.4 101960 98
2006-05-17 07:25:48 51°13.602 2°56.099 -999 81 11.5 101960 98
2006-05-17 07:25:53 51°13.602 2°56.099 -999 74 11.5 101960 98
2006-05-17 07:25:58 51°13.602 2°56.099 -999 80 11.5 101960 98
2006-05-17 07:26:03 51°13.602 2°56.099 -999 66 11.5 101960 98
2006-05-17 07:26:08 51°13.602 2°56.099 -999 81 11.5 101960 98
2006-05-17 07:26:14 51°13.602 2°56.099 -999 82 11.5 101960 98
2006-05-17 07:26:18 51°13.602 2°56.099 -999 108 11.5 101960 98
2006-05-17 07:26:23 51°13.602 2°56.099 -999 107 11.5 101960 98
2006-05-17 07:26:28 51°13.602 2°56.098 -999 111 11.5 101960 98
2006-05-17 07:26:33 51°13.601 2°56.098 -999 118 11.5 101960 98
2006-05-17 07:26:38 51°13.601 2°56.098 -999 109 11.5 101960 98
2006-05-17 07:26:41 51°13.601 2°56.098 -999 135 11.5 101960 98
2006-05-17 07:26:47 51°13.601 2°56.098 -999 117 11.5 101960 98
2006-05-17 07:26:53 51°13.601 2°56.098 -999 136 11.5 101960 98
2006-05-17 07:26:58 51°13.601 2°56.097 -999 138 11.5 101950 98
2006-05-17 07:27:03 51°13.601 2°56.097 -999 135 11.5 101950 98
2006-05-17 07:27:08 51°13.602 2°56.095 -999 126 11.5 101950 98
2006-05-17 07:27:13 51°13.602 2°56.093 -999 123 11.5 101950 98
2006-05-17 07:27:18 51°13.603 2°56.09 -999 116 11.5 101950 98
2006-05-17 07:27:23 51°13.604 2°56.086 -999 108 11.5 101950 98
2006-05-17 07:27:29 51°13.605 2°56.081 -999 103 11.5 101950 98
2006-05-17 07:27:34 51°13.606 2°56.076 -999 103 11.5 101950 98
2006-05-17 07:27:39 51°13.607 2°56.071 -999 125 11.5 101960 98
2006-05-17 07:27:44 51°13.608 2°56.065 -999 121 11.5 101960 98
2006-05-17 07:27:49 51°13.609 2°56.059 -999 123 11.5 101950 98
2006-05-17 07:27:54 51°13.611 2°56.053 -999 125 11.5 101950 98
2006-05-17 07:27:59 51°13.612 2°56.046 -999 110 11.5 101950 98
2006-05-17 07:28:04 51°13.614 2°56.039 -999 106 11.5 101950 98
2006-05-17 07:28:09 51°13.615 2°56.031 -999 102 11.5 101950 98
2006-05-17 07:28:14 51°13.617 2°56.024 -999 100 11.5 101950 98
2006-05-17 07:28:19 51°13.619 2°56.016 -999 112 11.5 101950 98
2006-05-17 07:28:24 51°13.62 2°56.008 -999 90 11.5 101950 98
2006-05-17 07:28:29 51°13.622 2°55.999 -999 114 11.5 101950 98
2006-05-17 07:28:34 51°13.624 2°55.991 -999 161 11.5 101950 98
2006-05-17 07:28:38 51°13.625 2°55.985 -999 170 11.5 101950 98
2006-05-17 07:28:44 51°13.628 2°55.975 -999 130 11.5 101950 98
2006-05-17 07:28:49 51°13.63 2°55.968 -999 127 11.4 101950 98
2006-05-17 07:28:54 51°13.632 2°55.96 -999 137 11.4 101950 98
2006-05-17 07:28:59 51°13.634 2°55.953 -999 133 11.4 101950 98
2006-05-17 07:29:04 51°13.636 2°55.945 -999 131 11.4 101950 98
2006-05-17 07:29:09 51°13.639 2°55.938 -999 130 11.4 101960 98
2006-05-17 07:29:14 51°13.641 2°55.93 -999 161 11.4 101960 98
2006-05-17 07:29:19 51°13.644 2°55.923 -999 172 11.4 101960 97
2006-05-17 07:29:24 51°13.646 2°55.916 -999 117 11.4 101960 97
2006-05-17 07:29:29 51°13.649 2°55.908 -999 134 11.4 101950 97
2006-05-17 07:29:34 51°13.652 2°55.901 -999 123 11.4 101950 97
2006-05-17 07:29:39 51°13.655 2°55.894 -999 116 11.4 101950 97
2006-05-17 07:29:44 51°13.658 2°55.886 -999 139 11.4 101950 97
2006-05-17 07:29:49 51°13.661 2°55.879 -999 128 11.4 101960 97
2006-05-17 07:29:54 51°13.664 2°55.872 -999 130 11.4 101960 97
2006-05-17 07:29:59 51°13.667 2°55.865 -999 122 11.4 101950 97
2006-05-17 07:30:04 51°13.67 2°55.857 -999 43 11.4 101950 97
2006-05-17 07:30:09 51°13.673 2°55.85 -999 177 11.4 101960 97
2006-05-17 07:30:14 51°13.676 2°55.842 -999 135 11.4 101960 97
2006-05-17 07:30:19 51°13.68 2°55.835 -999 130 11.4 101960 97
2006-05-17 07:30:24 51°13.683 2°55.827 -999 124 11.4 101960 97
2006-05-17 07:30:29 51°13.687 2°55.82 -999 122 11.4 101960 98
2006-05-17 07:30:34 51°13.691 2°55.813 -999 123 11.4 101960 98
2006-05-17 07:30:39 51°13.694 2°55.806 -999 120 11.4 101950 98
2006-05-17 07:30:44 51°13.697 2°55.799 -999 131 11.4 101950 98
2006-05-17 07:30:49 51°13.699 2°55.793 -999 129 11.4 101950 97
2006-05-17 07:30:54 51°13.702 2°55.786 -999 110 11.4 101950 97
2006-05-17 07:30:58 51°13.704 2°55.781 -999 121 11.4 101960 98
2006-05-17 07:31:03 51°13.707 2°55.775 -999 117 11.4 101960 98
2006-05-17 07:31:08 51°13.709 2°55.768 -999 129 11.4 101960 98
2006-05-17 07:31:14 51°13.711 2°55.761 -999 121 11.4 101960 98
2006-05-17 07:31:19 51°13.713 2°55.756 -999 120 11.4 101960 98
2006-05-17 07:31:24 51°13.715 2°55.752 -999 102 11.4 101960 98
2006-05-17 07:31:29 51°13.716 2°55.748 -999 116 11.4 101960 98
2006-05-17 07:31:34 51°13.717 2°55.745 -999 114 11.4 101960 98
2006-05-17 07:31:38 51°13.718 2°55.743 -999 108 11.5 101960 98
2006-05-17 07:31:44 51°13.719 2°55.742 -999 98 11.5 101960 98
2006-05-17 07:31:48 51°13.719 2°55.742 -999 98 11.5 101950 98
2006-05-17 07:31:54 51°13.72 2°55.743 -999 106 11.5 101950 98
2006-05-17 07:31:59 51°13.72 2°55.744 -999 101 11.5 101960 98
2006-05-17 07:32:04 51°13.721 2°55.746 -999 101 11.5 101960 98
2006-05-17 07:32:08 51°13.722 2°55.748 -999 113 11.5 101960 98
2006-05-17 07:32:13 51°13.723 2°55.751 -999 143 11.5 101960 98
2006-05-17 07:32:19 51°13.725 2°55.755 -999 149 11.5 101960 97
2006-05-17 07:32:23 51°13.726 2°55.756 -999 189 11.5 101960 97
2006-05-17 07:32:28 51°13.727 2°55.757 -999 197 11.5 101960 98
2006-05-17 07:32:33 51°13.727 2°55.757 -999 178 11.5 101960 98
2006-05-17 07:32:38 51°13.727 2°55.756 -999 180 11.5 101960 98
2006-05-17 07:32:42 51°13.726 2°55.754 -999 168 11.5 101960 98
2006-05-17 07:32:48 51°13.725 2°55.752 -999 164 11.5 101950 98
2006-05-17 07:32:53 51°13.723 2°55.749 -999 180 11.5 101950 98
2006-05-17 07:32:59 51°13.721 2°55.746 -999 200 11.5 101960 98
2006-05-17 07:33:04 51°13.719 2°55.744 -999 183 11.5 101960 98
2006-05-17 07:33:09 51°13.717 2°55.741 -999 208 11.5 101960 98
2006-05-17 07:33:14 51°13.715 2°55.739 -999 163 11.5 101960 98
2006-05-17 07:33:19 51°13.713 2°55.737 -999 204 11.6 101960 98
2006-05-17 07:33:24 51°13.712 2°55.735 -999 161 11.6 101960 98
2006-05-17 07:33:29 51°13.711 2°55.734 -999 189 11.6 101960 98
2006-05-17 07:33:34 51°13.711 2°55.733 -999 247 11.6 101960 98
2006-05-17 07:33:39 51°13.712 2°55.733 -999 249 11.6 101960 98
2006-05-17 07:33:44 51°13.714 2°55.733 -999 259 11.6 101960 98
2006-05-17 07:33:49 51°13.716 2°55.732 -999 253 11.6 101960 97
2006-05-17 07:33:54 51°13.718 2°55.731 -999 248 11.6 101960 97
2006-05-17 07:33:59 51°13.721 2°55.73 -999 256 11.6 101960 98
2006-05-17 07:34:04 51°13.723 2°55.729 -999 270 11.6 101960 98
2006-05-17 07:34:09 51°13.727 2°55.727 -999 274 11.6 101960 98
2006-05-17 07:34:14 51°13.73 2°55.724 -999 308 11.6 101960 98
2006-05-17 07:34:18 51°13.733 2°55.721 -999 292 11.7 101960 97
2006-05-17 07:34:23 51°13.737 2°55.717 -999 292 11.7 101960 97
2006-05-17 07:34:28 51°13.742 2°55.713 -999 291 11.7 101960 98
2006-05-17 07:34:33 51°13.747 2°55.708 -999 233 11.7 101960 98
2006-05-17 07:34:38 51°13.752 2°55.703 -999 279 11.7 101960 98
2006-05-17 07:34:44 51°13.759 2°55.696 -999 273 11.7 101960 98
2006-05-17 07:34:48 51°13.764 2°55.691 -999 275 11.7 101960 98
2006-05-17 07:34:53 51°13.771 2°55.685 -999 274 11.7 101960 98
2006-05-17 07:34:58 51°13.777 2°55.679 -999 275 11.7 101960 98
2006-05-17 07:35:03 51°13.784 2°55.672 -999 292 11.7 101960 98
2006-05-17 07:35:08 51°13.791 2°55.665 -999 289 11.7 101960 97
2006-05-17 07:35:13 51°13.798 2°55.659 -999 300 11.7 101960 97
2006-05-17 07:35:18 51°13.806 2°55.653 -999 313 11.7 101960 97
2006-05-17 07:35:24 51°13.815 2°55.645 -999 296 11.7 101960 97
2006-05-17 07:35:28 51°13.821 2°55.639 -999 292 11.7 101960 97
2006-05-17 07:35:33 51°13.829 2°55.632 -999 348 11.7 101960 97
2006-05-17 07:35:38 51°13.837 2°55.625 -999 347 11.8 101960 97
2006-05-17 07:35:43 51°13.845 2°55.618 -999 295 11.8 101960 97
2006-05-17 07:35:48 51°13.852 2°55.611 -999 289 11.8 101960 97
2006-05-17 07:35:54 51°13.862 2°55.603 -999 313 11.8 101960 97
2006-05-17 07:35:57 51°13.866 2°55.599 -999 334 11.8 101960 97
2006-05-17 07:36:02 51°13.873 2°55.592 -999 319 11.8 101960 97
2006-05-17 07:36:08 51°13.882 2°55.585 -999 324 11.8 101960 97
2006-05-17 07:36:14 51°13.892 2°55.578 -999 309 11.8 101960 97
2006-05-17 07:36:18 51°13.898 2°55.574 -999 238 11.8 101960 97
2006-05-17 07:36:23 51°13.905 2°55.568 -999 332 11.8 101960 97
2006-05-17 07:36:28 51°13.912 2°55.562 -999 339 11.8 101960 97
2006-05-17 07:36:33 51°13.92 2°55.557 -999 294 11.8 101960 97
2006-05-17 07:36:38 51°13.927 2°55.552 -999 292 11.8 101970 97
2006-05-17 07:36:44 51°13.936 2°55.546 -999 269 11.8 101970 97
2006-05-17 07:36:48 51°13.941 2°55.542 -999 278 11.8 101960 97
2006-05-17 07:36:53 51°13.949 2°55.538 -999 317 11.8 101960 97
2006-05-17 07:36:58 51°13.956 2°55.533 -999 290 11.9 101960 97
2006-05-17 07:37:03 51°13.963 2°55.528 -999 284 11.9 101960 97
2006-05-17 07:37:08 51°13.97 2°55.524 -999 288 11.9 101970 97
2006-05-17 07:37:12 51°13.976 2°55.519 -999 298 11.9 101970 97
2006-05-17 07:37:17 51°13.982 2°55.515 -999 282 11.9 101960 97
2006-05-17 07:37:24 51°13.992 2°55.507 -999 294 11.9 101960 97
2006-05-17 07:37:28 51°13.997 2°55.503 -999 306 11.9 101970 97
2006-05-17 07:37:33 51°14.004 2°55.498 -999 257 11.9 101970 97
2006-05-17 07:37:38 51°14.011 2°55.493 -999 265 11.9 101960 97
2006-05-17 07:37:44 51°14.019 2°55.487 -999 251 11.9 101960 97
2006-05-17 07:37:48 51°14.025 2°55.483 -999 246 11.9 101970 97
2006-05-17 07:37:53 51°14.032 2°55.477 -999 237 11.9 101970 97
2006-05-17 07:37:58 51°14.039 2°55.472 -999 240 11.9 101970 97
2006-05-17 07:38:03 51°14.047 2°55.467 -999 288 11.9 101970 97
2006-05-17 07:38:08 51°14.055 2°55.462 -999 234 11.9 101970 97
2006-05-17 07:38:14 51°14.065 2°55.456 -999 261 11.9 101970 97
2006-05-17 07:38:17 51°14.07 2°55.452 -999 254 11.9 101970 97
2006-05-17 07:38:23 51°14.08 2°55.446 -999 260 11.9 101970 97
2006-05-17 07:38:28 51°14.089 2°55.44 -999 258 12 101970 97
2006-05-17 07:38:33 51°14.098 2°55.434 -999 254 12 101970 97
2006-05-17 07:38:38 51°14.107 2°55.428 -999 297 11.9 101970 97
2006-05-17 07:38:43 51°14.116 2°55.422 -999 275 11.9 101970 97
2006-05-17 07:38:48 51°14.125 2°55.415 -999 273 12 101970 97
2006-05-17 07:38:54 51°14.136 2°55.406 -999 254 12 101970 97
2006-05-17 07:38:58 51°14.145 2°55.401 -999 253 12 101960 97
2006-05-17 07:39:04 51°14.156 2°55.392 -999 270 12 101960 97
2006-05-17 07:39:08 51°14.164 2°55.386 -999 272 12 101960 97
2006-05-17 07:39:13 51°14.173 2°55.377 -999 316 12 101960 97
2006-05-17 07:39:18 51°14.183 2°55.369 -999 314 12 101970 97
2006-05-17 07:39:23 51°14.192 2°55.361 -999 328 12 101970 97
2006-05-17 07:39:28 51°14.202 2°55.351 -999 323 12 101960 97
2006-05-17 07:39:34 51°14.213 2°55.34 -999 42 12 101960 97
2006-05-17 07:39:38 51°14.22 2°55.331 -999 319 12 101960 97
2006-05-17 07:39:44 51°14.231 2°55.318 -999 315 12 101960 97
2006-05-17 07:39:48 51°14.238 2°55.308 -999 346 12.1 101970 97
2006-05-17 07:39:54 51°14.248 2°55.293 -999 349 12.1 101970 97
2006-05-17 07:39:58 51°14.255 2°55.283 -999 353 12.1 101970 97
2006-05-17 07:40:03 51°14.263 2°55.269 -999 332 12.1 101970 97
2006-05-17 07:40:08 51°14.271 2°55.255 -999 328 12.1 101960 97
2006-05-17 07:40:13 51°14.279 2°55.241 -999 317 12.1 101960 97
2006-05-17 07:40:18 51°14.287 2°55.225 -999 324 12.1 101960 97
2006-05-17 07:40:22 51°14.293 2°55.213 -999 307 12.1 101960 97
2006-05-17 07:40:28 51°14.302 2°55.194 -999 308 12.1 101960 97
2006-05-17 07:40:33 51°14.309 2°55.178 -999 318 12.1 101960 97
2006-05-17 07:40:38 51°14.316 2°55.162 -999 303 12.1 101960 97
2006-05-17 07:40:44 51°14.325 2°55.142 -999 338 12.1 101960 97
2006-05-17 07:40:48 51°14.33 2°55.129 -999 322 12 101960 96
2006-05-17 07:40:53 51°14.337 2°55.112 -999 341 12 101960 96
2006-05-17 07:40:58 51°14.345 2°55.095 -999 345 12 101960 96
2006-05-17 07:41:01 51°14.349 2°55.085 -999 352 12 101960 96
2006-05-17 07:41:07 51°14.357 2°55.065 -999 233 12 101960 96
2006-05-17 07:41:14 51°14.367 2°55.042 -999 43 12 101960 96
2006-05-17 07:41:18 51°14.373 2°55.029 -999 313 12 101960 96
2006-05-17 07:41:23 51°14.38 2°55.011 -999 303 12 101960 96
2006-05-17 07:41:28 51°14.387 2°54.994 -999 304 12.1 101960 96
2006-05-17 07:41:33 51°14.393 2°54.976 -999 313 12.1 101960 96
2006-05-17 07:41:38 51°14.399 2°54.958 -999 312 12.1 101960 96
2006-05-17 07:41:43 51°14.404 2°54.939 -999 325 12.1 101960 96
2006-05-17 07:41:48 51°14.41 2°54.919 -999 316 12.1 101970 96
2006-05-17 07:41:53 51°14.415 2°54.899 -999 312 12.1 101970 96
2006-05-17 07:41:58 51°14.421 2°54.878 -999 315 12 101970 96
2006-05-17 07:42:04 51°14.427 2°54.853 -999 318 12 101970 96
2006-05-17 07:42:08 51°14.432 2°54.835 -999 321 12.1 101960 96
2006-05-17 07:42:13 51°14.438 2°54.813 -999 326 12.1 101960 96
2006-05-17 07:42:18 51°14.443 2°54.789 -999 325 12 101970 96
2006-05-17 07:42:23 51°14.448 2°54.766 -999 326 12 101970 96
2006-05-17 07:42:27 51°14.452 2°54.746 -999 324 12 101960 96
2006-05-17 07:42:33 51°14.458 2°54.715 -999 324 12 101960 96
2006-05-17 07:42:38 51°14.462 2°54.689 -999 330 12 101960 96
2006-05-17 07:42:43 51°14.466 2°54.663 -999 327 12 101960 96
2006-05-17 07:42:47 51°14.47 2°54.641 -999 333 12 101950 96
2006-05-17 07:42:51 51°14.474 2°54.62 -999 328 12 101950 96
2006-05-17 07:42:58 51°14.481 2°54.582 -999 328 12 101960 96
2006-05-17 07:43:03 51°14.486 2°54.555 -999 331 12 101960 96
2006-05-17 07:43:08 51°14.492 2°54.528 -999 329 12 101960 96
2006-05-17 07:43:13 51°14.497 2°54.5 -999 333 12 101960 96
2006-05-17 07:43:18 51°14.503 2°54.472 -999 332 12 101950 96
2006-05-17 07:43:23 51°14.509 2°54.444 -999 326 12 101950 96
2006-05-17 07:43:28 51°14.515 2°54.416 -999 330 12 101950 96
2006-05-17 07:43:33 51°14.521 2°54.388 -999 334 12 101950 96
2006-05-17 07:43:38 51°14.528 2°54.36 -999 331 12 101950 96
2006-05-17 07:43:42 51°14.533 2°54.337 -999 334 12 101950 96
2006-05-17 07:43:48 51°14.541 2°54.303 -999 329 12 101950 96
2006-05-17 07:43:53 51°14.548 2°54.275 -999 332 12 101950 96
2006-05-17 07:43:58 51°14.555 2°54.246 -999 332 11.9 101950 96
2006-05-17 07:44:04 51°14.563 2°54.213 -999 325 11.9 101950 96
2006-05-17 07:44:07 51°14.568 2°54.196 -999 322 11.9 101950 96
2006-05-17 07:44:14 51°14.578 2°54.156 -999 319 11.9 101950 96
2006-05-17 07:44:18 51°14.584 2°54.134 -999 328 11.9 101950 96
2006-05-17 07:44:22 51°14.59 2°54.112 -999 323 11.9 101950 96
2006-05-17 07:44:28 51°14.598 2°54.078 -999 326 11.9 101950 96
2006-05-17 07:44:33 51°14.606 2°54.05 -999 322 11.9 101950 96
2006-05-17 07:44:38 51°14.613 2°54.021 -999 320 11.9 101950 96
2006-05-17 07:44:42 51°14.618 2°53.999 -999 326 11.9 101950 96
2006-05-17 07:44:48 51°14.626 2°53.964 -999 326 11.9 101960 96
2006-05-17 07:44:52 51°14.631 2°53.941 -999 325 11.9 101960 96
2006-05-17 07:44:57 51°14.637 2°53.912 -999 324 11.9 101950 96
2006-05-17 07:45:04 51°14.645 2°53.871 -999 321 11.9 101950 96
2006-05-17 07:45:09 51°14.651 2°53.842 -999 323 11.9 101960 96
2006-05-17 07:45:13 51°14.656 2°53.819 -999 324 11.9 101960 96
2006-05-17 07:45:18 51°14.662 2°53.79 -999 325 11.9 101960 96
2006-05-17 07:45:24 51°14.669 2°53.755 -999 324 11.9 101960 96
2006-05-17 07:45:28 51°14.673 2°53.732 -999 325 11.9 101960 96
2006-05-17 07:45:34 51°14.681 2°53.697 -999 322 11.9 101960 96
2006-05-17 07:45:38 51°14.685 2°53.675 -999 324 11.9 101960 96
2006-05-17 07:45:42 51°14.69 2°53.652 -999 331 11.9 101960 96
2006-05-17 07:45:48 51°14.698 2°53.618 -999 329 11.8 101960 96
2006-05-17 07:45:53 51°14.705 2°53.59 -999 325 11.8 101960 96
2006-05-17 07:45:58 51°14.713 2°53.562 -999 326 11.9 101960 96
2006-05-17 07:46:04 51°14.722 2°53.529 -999 331 11.9 101960 96
2006-05-17 07:46:08 51°14.728 2°53.508 -999 333 11.8 101960 96
2006-05-17 07:46:13 51°14.736 2°53.48 -999 326 11.8 101960 96
2006-05-17 07:46:18 51°14.744 2°53.453 -999 330 11.8 101960 96
2006-05-17 07:46:22 51°14.75 2°53.431 -999 328 11.8 101960 96
2006-05-17 07:46:28 51°14.758 2°53.397 -999 328 11.8 101960 96
2006-05-17 07:46:33 51°14.763 2°53.368 -999 335 11.8 101960 96
2006-05-17 07:46:37 51°14.766 2°53.344 -999 338 11.8 101950 96
2006-05-17 07:46:43 51°14.77 2°53.309 -999 342 11.8 101950 96
2006-05-17 07:46:48 51°14.772 2°53.279 -999 342 11.8 101950 96
2006-05-17 07:46:53 51°14.772 2°53.249 -999 336 11.8 101950 96
2006-05-17 07:46:58 51°14.772 2°53.219 -999 336 11.8 101960 96
2006-05-17 07:47:03 51°14.771 2°53.189 -999 341 11.8 101960 96
2006-05-17 07:47:08 51°14.769 2°53.159 -999 343 11.8 101950 96
2006-05-17 07:47:13 51°14.767 2°53.129 -999 341 11.8 101950 96
2006-05-17 07:47:18 51°14.764 2°53.1 -999 339 11.8 101940 96
2006-05-17 07:47:22 51°14.762 2°53.076 -999 341 11.8 101940 96
2006-05-17 07:47:28 51°14.758 2°53.041 -999 343 11.8 101940 96
2006-05-17 07:47:34 51°14.754 2°53.005 -999 342 11.8 101940 96
2006-05-17 07:47:38 51°14.751 2°52.982 -999 342 11.8 101940 96
2006-05-17 07:47:43 51°14.747 2°52.952 -999 344 11.8 101940 96
2006-05-17 07:47:48 51°14.744 2°52.922 -999 343 11.8 101940 96
2006-05-17 07:47:54 51°14.739 2°52.887 -999 342 11.8 101940 96
2006-05-17 07:47:58 51°14.736 2°52.863 -999 339 11.8 101940 96
2006-05-17 07:48:02 51°14.734 2°52.839 -999 336 11.8 101940 96
2006-05-17 07:48:08 51°14.73 2°52.803 -999 338 11.8 101940 96
2006-05-17 07:48:13 51°14.727 2°52.773 -999 338 11.8 101940 96
2006-05-17 07:48:18 51°14.725 2°52.743 -999 338 11.8 101940 96
2006-05-17 07:48:24 51°14.723 2°52.706 -999 335 11.8 101940 96
2006-05-17 07:48:27 51°14.722 2°52.688 -999 334 11.8 101930 96
2006-05-17 07:48:33 51°14.721 2°52.652 -999 333 11.8 101930 96
2006-05-17 07:48:38 51°14.721 2°52.621 -999 332 11.8 101930 96
2006-05-17 07:48:44 51°14.72 2°52.585 -999 335 11.8 101930 96
2006-05-17 07:48:48 51°14.72 2°52.56 -999 338 11.7 101950 96
2006-05-17 07:48:53 51°14.718 2°52.53 -999 338 11.7 101950 96
2006-05-17 07:48:58 51°14.717 2°52.5 -999 338 11.7 101940 96
2006-05-17 07:49:03 51°14.715 2°52.469 -999 342 11.7 101940 96
2006-05-17 07:49:08 51°14.713 2°52.439 -999 341 11.7 101950 96
2006-05-17 07:49:13 51°14.709 2°52.409 -999 343 11.7 101950 96
2006-05-17 07:49:18 51°14.706 2°52.379 -999 341 11.7 101950 96
2006-05-17 07:49:23 51°14.703 2°52.349 -999 342 11.7 101950 96
2006-05-17 07:49:28 51°14.699 2°52.32 -999 343 11.7 101960 96
2006-05-17 07:49:33 51°14.696 2°52.29 -999 341 11.7 101960 96
2006-05-17 07:49:38 51°14.692 2°52.26 -999 341 11.7 101950 96
2006-05-17 07:49:44 51°14.688 2°52.224 -999 340 11.7 101950 96
2006-05-17 07:49:48 51°14.686 2°52.2 -999 341 11.7 101940 96
2006-05-17 07:49:53 51°14.682 2°52.17 -999 346 11.7 101940 96
2006-05-17 07:49:58 51°14.679 2°52.14 -999 343 11.7 101950 96
2006-05-17 07:50:03 51°14.676 2°52.11 -999 343 11.7 101950 96
2006-05-17 07:50:08 51°14.672 2°52.08 -999 343 11.7 101950 96
2006-05-17 07:50:14 51°14.669 2°52.044 -999 341 11.7 101950 96
2006-05-17 07:50:18 51°14.667 2°52.02 -999 342 11.7 101940 96
2006-05-17 07:50:23 51°14.665 2°51.989 -999 340 11.7 101940 96
2006-05-17 07:50:28 51°14.664 2°51.959 -999 338 11.7 101950 96
2006-05-17 07:50:33 51°14.663 2°51.929 -999 339 11.7 101950 96
2006-05-17 07:50:38 51°14.662 2°51.898 -999 337 11.7 101940 96
2006-05-17 07:50:43 51°14.662 2°51.867 -999 334 11.7 101940 96
2006-05-17 07:50:49 51°14.661 2°51.831 -999 334 11.7 101940 96
2006-05-17 07:50:53 51°14.661 2°51.806 -999 338 11.7 101940 96
2006-05-17 07:50:58 51°14.661 2°51.775 -999 337 11.7 101940 96
2006-05-17 07:51:03 51°14.661 2°51.745 -999 335 11.7 101940 96
2006-05-17 07:51:08 51°14.66 2°51.714 -999 334 11.7 101950 96
2006-05-17 07:51:13 51°14.659 2°51.683 -999 337 11.7 101950 96
2006-05-17 07:51:18 51°14.658 2°51.653 -999 334 11.7 101950 96
2006-05-17 07:51:24 51°14.655 2°51.616 -999 340 11.7 101950 96
2006-05-17 07:51:27 51°14.653 2°51.597 -999 344 11.7 101950 96
2006-05-17 07:51:33 51°14.649 2°51.561 -999 339 11.7 101950 96
2006-05-17 07:51:38 51°14.645 2°51.531 -999 343 11.7 101940 96
2006-05-17 07:51:44 51°14.641 2°51.494 -999 338 11.7 101940 96
2006-05-17 07:51:49 51°14.637 2°51.464 -999 338 11.7 101950 96
2006-05-17 07:51:53 51°14.634 2°51.44 -999 339 11.7 101950 96
2006-05-17 07:51:58 51°14.629 2°51.409 -999 341 11.7 101950 96
2006-05-17 07:52:02 51°14.626 2°51.385 -999 340 11.7 101950 96
2006-05-17 07:52:08 51°14.621 2°51.349 -999 339 11.7 101950 96
2006-05-17 07:52:13 51°14.617 2°51.318 -999 339 11.7 101950 96
2006-05-17 07:52:18 51°14.613 2°51.288 -999 336 11.7 101950 96
2006-05-17 07:52:23 51°14.609 2°51.258 -999 339 11.7 101950 96
2006-05-17 07:52:28 51°14.606 2°51.227 -999 336 11.7 101950 96
2006-05-17 07:52:33 51°14.603 2°51.196 -999 338 11.7 101950 96
2006-05-17 07:52:38 51°14.599 2°51.165 -999 336 11.7 101940 96
2006-05-17 07:52:44 51°14.596 2°51.129 -999 338 11.7 101940 96
2006-05-17 07:52:48 51°14.595 2°51.104 -999 338 11.7 101950 96
2006-05-17 07:52:53 51°14.592 2°51.073 -999 337 11.7 101950 96
2006-05-17 07:52:58 51°14.591 2°51.042 -999 338 11.7 101950 96
2006-05-17 07:53:04 51°14.589 2°51.005 -999 337 11.7 101950 96
2006-05-17 07:53:08 51°14.587 2°50.98 -999 341 11.7 101950 96
2006-05-17 07:53:12 51°14.586 2°50.955 -999 340 11.7 101950 96
2006-05-17 07:53:18 51°14.584 2°50.918 -999 337 11.7 101950 96
2006-05-17 07:53:24 51°14.581 2°50.881 -999 342 11.7 101950 96
2006-05-17 07:53:28 51°14.579 2°50.856 -999 341 11.7 101950 96
2006-05-17 07:53:34 51°14.576 2°50.819 -999 343 11.7 101950 96
2006-05-17 07:53:38 51°14.574 2°50.794 -999 342 11.7 101950 96
2006-05-17 07:53:43 51°14.57 2°50.764 -999 339 11.7 101950 96
2006-05-17 07:53:49 51°14.566 2°50.727 -999 339 11.7 101950 96
2006-05-17 07:53:52 51°14.564 2°50.708 -999 338 11.7 101950 96
2006-05-17 07:53:57 51°14.56 2°50.678 -999 338 11.7 101950 96
2006-05-17 07:54:03 51°14.555 2°50.641 -999 337 11.7 101950 96
2006-05-17 07:54:08 51°14.552 2°50.61 -999 337 11.7 101950 96
2006-05-17 07:54:13 51°14.547 2°50.58 -999 338 11.7 101950 96
2006-05-17 07:54:18 51°14.544 2°50.549 -999 342 11.7 101950 96
2006-05-17 07:54:23 51°14.54 2°50.519 -999 340 11.7 101950 96
2006-05-17 07:54:28 51°14.537 2°50.488 -999 338 11.7 101950 96
2006-05-17 07:54:34 51°14.533 2°50.451 -999 337 11.7 101950 96
2006-05-17 07:54:38 51°14.53 2°50.426 -999 340 11.7 101950 96
2006-05-17 07:54:43 51°14.527 2°50.396 -999 335 11.7 101950 96
2006-05-17 07:54:48 51°14.523 2°50.364 -999 335 11.7 101950 96
2006-05-17 07:54:52 51°14.521 2°50.339 -999 335 11.7 101950 96
2006-05-17 07:54:58 51°14.518 2°50.302 -999 336 11.7 101950 96
2006-05-17 07:55:03 51°14.516 2°50.271 -999 339 11.7 101950 96
2006-05-17 07:55:08 51°14.513 2°50.24 -999 339 11.7 101950 96
2006-05-17 07:55:13 51°14.511 2°50.209 -999 338 11.7 101950 96
2006-05-17 07:55:18 51°14.508 2°50.178 -999 338 11.7 101950 96
2006-05-17 07:55:22 51°14.505 2°50.154 -999 341 11.7 101950 96
2006-05-17 07:55:28 51°14.499 2°50.117 -999 339 11.7 101950 96
2006-05-17 07:55:33 51°14.494 2°50.087 -999 338 11.7 101950 96
2006-05-17 07:55:38 51°14.489 2°50.057 -999 339 11.7 101950 96
2006-05-17 07:55:44 51°14.482 2°50.022 -999 341 11.7 101950 96
2006-05-17 07:55:48 51°14.477 2°49.998 -999 340 11.7 101950 96
2006-05-17 07:55:53 51°14.47 2°49.968 -999 338 11.7 101950 96
2006-05-17 07:55:58 51°14.464 2°49.939 -999 336 11.7 101950 96
2006-05-17 07:56:03 51°14.457 2°49.91 -999 343 11.7 101950 96
2006-05-17 07:56:08 51°14.451 2°49.88 -999 343 11.7 101950 96
2006-05-17 07:56:13 51°14.444 2°49.851 -999 342 11.7 101950 96
2006-05-17 07:56:18 51°14.438 2°49.821 -999 339 11.8 101950 96
2006-05-17 07:56:22 51°14.432 2°49.797 -999 344 11.8 101950 96
2006-05-17 07:56:28 51°14.425 2°49.762 -999 343 11.8 101950 96
2006-05-17 07:56:33 51°14.418 2°49.732 -999 344 11.8 101950 96
2006-05-17 07:56:37 51°14.413 2°49.709 -999 343 11.8 101940 96
2006-05-17 07:56:43 51°14.406 2°49.673 -999 343 11.8 101940 96
2006-05-17 07:56:48 51°14.4 2°49.643 -999 342 11.8 101940 96
2006-05-17 07:56:53 51°14.394 2°49.613 -999 344 11.8 101940 96
2006-05-17 07:56:58 51°14.389 2°49.583 -999 342 11.8 101940 96
2006-05-17 07:57:03 51°14.384 2°49.553 -999 334 11.8 101940 96
2006-05-17 07:57:08 51°14.378 2°49.522 -999 334 11.8 101940 96
2006-05-17 07:57:13 51°14.373 2°49.492 -999 334 11.8 101940 96
2006-05-17 07:57:18 51°14.368 2°49.462 -999 334 11.7 101940 96
2006-05-17 07:57:24 51°14.361 2°49.426 -999 334 11.7 101940 96
2006-05-17 07:57:28 51°14.357 2°49.402 -999 336 11.7 101950 96
2006-05-17 07:57:33 51°14.35 2°49.372 -999 339 11.7 101950 96
2006-05-17 07:57:38 51°14.344 2°49.343 -999 338 11.8 101950 96
2006-05-17 07:57:44 51°14.336 2°49.307 -999 334 11.8 101950 96
2006-05-17 07:57:48 51°14.33 2°49.284 -999 334 11.7 101950 96
2006-05-17 07:57:52 51°14.324 2°49.26 -999 338 11.7 101950 96
2006-05-17 07:57:58 51°14.316 2°49.225 -999 337 11.7 101950 96
2006-05-17 07:58:04 51°14.307 2°49.19 -999 338 11.7 101950 96
2006-05-17 07:58:08 51°14.301 2°49.167 -999 339 11.7 101950 96
2006-05-17 07:58:13 51°14.294 2°49.137 -999 335 11.7 101950 96
2006-05-17 07:58:17 51°14.289 2°49.114 -999 336 11.7 101950 96
2006-05-17 07:58:23 51°14.282 2°49.078 -999 336 11.7 101950 96
2006-05-17 07:58:28 51°14.275 2°49.048 -999 337 11.7 101950 96
2006-05-17 07:58:33 51°14.27 2°49.018 -999 336 11.7 101950 96
2006-05-17 07:58:38 51°14.264 2°48.988 -999 337 11.7 101950 96
2006-05-17 07:58:42 51°14.259 2°48.964 -999 340 11.7 101950 96
2006-05-17 07:58:48 51°14.252 2°48.928 -999 339 11.7 101950 96
2006-05-17 07:58:54 51°14.244 2°48.893 -999 343 11.7 101950 96
2006-05-17 07:58:58 51°14.239 2°48.869 -999 344 11.7 101950 96
2006-05-17 07:59:03 51°14.232 2°48.84 -999 339 11.7 101950 96
2006-05-17 07:59:08 51°14.225 2°48.811 -999 340 11.7 101950 96
2006-05-17 07:59:13 51°14.217 2°48.783 -999 343 11.7 101950 96
2006-05-17 07:59:17 51°14.21 2°48.76 -999 343 11.7 101950 96
2006-05-17 07:59:24 51°14.198 2°48.721 -999 345 11.7 101950 96
2006-05-17 07:59:28 51°14.19 2°48.699 -999 345 11.8 101950 96
2006-05-17 07:59:34 51°14.18 2°48.665 -999 343 11.8 101950 96
2006-05-17 07:59:38 51°14.172 2°48.643 -999 343 11.8 101950 96
2006-05-17 07:59:43 51°14.163 2°48.616 -999 341 11.8 101950 96
2006-05-17 07:59:47 51°14.156 2°48.594 -999 342 11.8 101950 96
2006-05-17 07:59:53 51°14.145 2°48.561 -999 341 11.8 101950 96
2006-05-17 07:59:58 51°14.135 2°48.534 -999 342 11.8 101940 96
2006-05-17 08:00:04 51°14.125 2°48.502 -999 345 11.8 101940 96
2006-05-17 08:00:07 51°14.12 2°48.488 -999 345 11.8 101940 96
2006-05-17 08:00:13 51°14.111 2°48.459 -999 345 11.8 101940 96
2006-05-17 08:00:18 51°14.104 2°48.437 -999 342 11.8 101940 96
2006-05-17 08:00:21 51°14.1 2°48.425 -999 341 11.8 101940 96
2006-05-17 08:00:28 51°14.091 2°48.397 -999 340 11.8 101940 96
2006-05-17 08:00:34 51°14.084 2°48.374 -999 337 11.8 101940 96
2006-05-17 08:00:38 51°14.08 2°48.36 -999 338 11.7 101950 96
2006-05-17 08:00:41 51°14.077 2°48.35 -999 341 11.7 101950 96
2006-05-17 08:00:47 51°14.07 2°48.329 -999 334 11.8 101950 96
2006-05-17 08:00:53 51°14.065 2°48.31 -999 337 11.8 101950 96
2006-05-17 08:00:58 51°14.06 2°48.295 -999 333 11.8 101950 96
2006-05-17 08:01:03 51°14.056 2°48.28 -999 336 11.8 101950 96
2006-05-17 08:01:08 51°14.051 2°48.266 -999 333 11.8 101950 96
2006-05-17 08:01:13 51°14.047 2°48.252 -999 334 11.8 101950 96
2006-05-17 08:01:18 51°14.043 2°48.239 -999 333 11.7 101950 96
2006-05-17 08:01:23 51°14.039 2°48.226 -999 329 11.7 101950 96
2006-05-17 08:01:28 51°14.035 2°48.213 -999 330 11.7 101950 96
2006-05-17 08:01:33 51°14.031 2°48.201 -999 329 11.7 101950 96
2006-05-17 08:01:38 51°14.028 2°48.189 -999 328 11.7 101950 96
2006-05-17 08:01:42 51°14.025 2°48.18 -999 329 11.7 101950 96
2006-05-17 08:01:48 51°14.02 2°48.166 -999 330 11.7 101950 96
2006-05-17 08:01:53 51°14.017 2°48.155 -999 330 11.7 101950 96
2006-05-17 08:01:58 51°14.013 2°48.144 -999 327 11.7 101950 96
2006-05-17 08:02:04 51°14.009 2°48.132 -999 328 11.7 101950 96
2006-05-17 08:02:08 51°14.006 2°48.124 -999 330 11.7 101960 96
2006-05-17 08:02:13 51°14.003 2°48.114 -999 335 11.7 101960 96
2006-05-17 08:02:18 51°13.999 2°48.105 -999 333 11.7 101960 96
2006-05-17 08:02:23 51°13.996 2°48.096 -999 331 11.7 101960 96
2006-05-17 08:02:28 51°13.993 2°48.088 -999 332 11.7 101960 96
2006-05-17 08:02:33 51°13.99 2°48.08 -999 330 11.7 101960 96
2006-05-17 08:02:38 51°13.987 2°48.073 -999 328 11.6 101960 96
2006-05-17 08:02:42 51°13.985 2°48.068 -999 321 11.6 101960 96
2006-05-17 08:02:48 51°13.983 2°48.062 -999 318 11.6 101960 96
2006-05-17 08:02:53 51°13.982 2°48.057 -999 318 11.6 101960 96
2006-05-17 08:02:58 51°13.981 2°48.053 -999 313 11.6 101960 96
2006-05-17 08:03:03 51°13.98 2°48.05 -999 307 11.6 101960 96
2006-05-17 08:03:07 51°13.979 2°48.048 -999 305 11.6 101970 96
2006-05-17 08:03:13 51°13.979 2°48.046 -999 291 11.6 101970 96
2006-05-17 08:03:18 51°13.978 2°48.045 -999 292 11.6 101960 96
2006-05-17 08:03:23 51°13.978 2°48.045 -999 290 11.6 101960 96
2006-05-17 08:03:28 51°13.977 2°48.045 -999 289 11.7 101970 96
2006-05-17 08:03:33 51°13.977 2°48.044 -999 290 11.7 101970 96
2006-05-17 08:03:39 51°13.977 2°48.044 -999 289 11.7 101960 96
2006-05-17 08:03:44 51°13.976 2°48.043 -999 288 11.7 101960 96
2006-05-17 08:03:49 51°13.976 2°48.042 -999 288 11.7 101960 96
2006-05-17 08:03:54 51°13.975 2°48.042 -999 288 11.7 101960 96
2006-05-17 08:03:59 51°13.975 2°48.041 -999 290 11.7 101970 96
2006-05-17 08:04:03 51°13.974 2°48.04 -999 286 11.7 101970 96
2006-05-17 08:04:09 51°13.974 2°48.039 -999 285 11.7 101960 96
2006-05-17 08:04:14 51°13.973 2°48.039 -999 286 11.7 101960 96
2006-05-17 08:04:18 51°13.973 2°48.038 -999 284 11.7 101970 96
2006-05-17 08:04:23 51°13.972 2°48.037 -999 282 11.7 101970 96
2006-05-17 08:04:28 51°13.971 2°48.036 -999 282 11.7 101960 96
2006-05-17 08:04:32 51°13.971 2°48.036 -999 278 11.7 101960 96
2006-05-17 08:04:38 51°13.97 2°48.034 -999 282 11.7 101960 96
2006-05-17 08:04:42 51°13.97 2°48.033 -999 284 11.7 101960 96
2006-05-17 08:04:48 51°13.969 2°48.032 -999 281 11.7 101970 96
2006-05-17 08:04:53 51°13.969 2°48.031 -999 280 11.7 101970 96
2006-05-17 08:04:58 51°13.968 2°48.03 -999 278 11.7 101960 96
2006-05-17 08:05:02 51°13.968 2°48.029 -999 285 11.7 101960 96
2006-05-17 08:05:07 51°13.968 2°48.028 -999 286 11.7 101960 96
2006-05-17 08:05:11 51°13.967 2°48.027 -999 286 11.7 101960 96
2006-05-17 08:05:18 51°13.966 2°48.026 -999 286 11.8 101960 96
2006-05-17 08:05:23 51°13.966 2°48.024 -999 284 11.8 101960 96
2006-05-17 08:05:28 51°13.966 2°48.023 -999 283 11.8 101970 96
2006-05-17 08:05:33 51°13.965 2°48.022 -999 286 11.8 101970 96
2006-05-17 08:05:38 51°13.965 2°48.021 -999 285 11.8 101970 96
2006-05-17 08:05:44 51°13.964 2°48.019 -999 284 11.8 101970 96
2006-05-17 08:05:48 51°13.964 2°48.018 -999 285 11.8 101970 96
2006-05-17 08:05:53 51°13.964 2°48.017 -999 279 11.8 101970 96
2006-05-17 08:05:58 51°13.963 2°48.016 -999 282 11.8 101970 96
2006-05-17 08:06:04 51°13.962 2°48.014 -999 276 11.8 101970 96
2006-05-17 08:06:08 51°13.962 2°48.013 -999 276 11.8 101970 96
2006-05-17 08:06:13 51°13.962 2°48.012 -999 268 11.8 101970 96
2006-05-17 08:06:18 51°13.962 2°48.011 -999 267 11.8 101960 96
2006-05-17 08:06:23 51°13.961 2°48.009 -999 264 11.8 101960 96
2006-05-17 08:06:27 51°13.961 2°48.008 -999 264 11.8 101970 96
2006-05-17 08:06:33 51°13.96 2°48.006 -999 267 11.8 101970 96
2006-05-17 08:06:38 51°13.96 2°48.005 -999 263 11.8 101970 96
2006-05-17 08:06:43 51°13.959 2°48.003 -999 271 11.8 101970 96
2006-05-17 08:06:48 51°13.959 2°48.002 -999 269 11.8 101970 96
2006-05-17 08:06:51 51°13.959 2°48.001 -999 263 11.8 101970 96
2006-05-17 08:06:58 51°13.958 2°47.999 -999 264 11.8 101970 96
2006-05-17 08:07:03 51°13.958 2°47.997 -999 269 11.8 101970 96
2006-05-17 08:07:08 51°13.957 2°47.996 -999 271 11.8 101970 96
2006-05-17 08:07:13 51°13.957 2°47.994 -999 265 11.8 101970 96
2006-05-17 08:07:18 51°13.956 2°47.993 -999 266 11.9 101970 96
2006-05-17 08:07:23 51°13.956 2°47.991 -999 266 11.9 101970 96
2006-05-17 08:07:28 51°13.956 2°47.989 -999 266 11.9 101970 96
2006-05-17 08:07:33 51°13.955 2°47.988 -999 265 11.9 101970 96
2006-05-17 08:07:38 51°13.955 2°47.986 -999 264 11.9 101970 96
2006-05-17 08:07:44 51°13.954 2°47.984 -999 261 11.9 101970 96
2006-05-17 08:07:48 51°13.954 2°47.982 -999 262 11.9 101970 96
2006-05-17 08:07:53 51°13.953 2°47.981 -999 258 11.9 101970 96
2006-05-17 08:07:58 51°13.953 2°47.979 -999 258 11.9 101970 96
2006-05-17 08:08:03 51°13.953 2°47.977 -999 268 11.9 101970 96
2006-05-17 08:08:08 51°13.952 2°47.976 -999 262 11.9 101970 96
2006-05-17 08:08:13 51°13.952 2°47.974 -999 265 11.9 101970 96
2006-05-17 08:08:18 51°13.952 2°47.972 -999 264 11.9 101970 96
2006-05-17 08:08:23 51°13.951 2°47.97 -999 262 11.9 101970 96
2006-05-17 08:08:28 51°13.951 2°47.968 -999 262 11.9 101970 96
2006-05-17 08:08:33 51°13.95 2°47.966 -999 260 11.9 101970 96
2006-05-17 08:08:38 51°13.95 2°47.965 -999 253 11.9 101970 96
2006-05-17 08:08:43 51°13.949 2°47.963 -999 253 11.9 101970 96
2006-05-17 08:08:48 51°13.949 2°47.961 -999 252 12 101970 96
2006-05-17 08:08:54 51°13.949 2°47.958 -999 248 12 101970 96
2006-05-17 08:08:58 51°13.948 2°47.957 -999 248 12 101970 96
2006-05-17 08:09:03 51°13.948 2°47.955 -999 255 12 101970 96
2006-05-17 08:09:07 51°13.948 2°47.953 -999 258 12 101970 96
2006-05-17 08:09:13 51°13.947 2°47.951 -999 253 12 101970 96
2006-05-17 08:09:18 51°13.947 2°47.949 -999 255 11.9 101970 96
2006-05-17 08:09:24 51°13.946 2°47.947 -999 257 11.9 101970 96
2006-05-17 08:09:28 51°13.946 2°47.945 -999 257 12 101970 96
2006-05-17 08:09:33 51°13.946 2°47.943 -999 254 12 101970 96
2006-05-17 08:09:38 51°13.945 2°47.941 -999 254 12 101970 96
2006-05-17 08:09:44 51°13.945 2°47.939 -999 255 12 101970 96
2006-05-17 08:09:47 51°13.945 2°47.937 -999 257 12 101970 95
2006-05-17 08:09:52 51°13.944 2°47.935 -999 254 12 101970 95
2006-05-17 08:09:58 51°13.944 2°47.933 -999 258 11.9 101960 95
2006-05-17 08:10:01 51°13.944 2°47.931 -999 258 11.9 101960 95
2006-05-17 08:10:07 51°13.943 2°47.929 -999 255 11.9 101970 95
2006-05-17 08:10:13 51°13.943 2°47.926 -999 258 11.9 101970 95
2006-05-17 08:10:18 51°13.942 2°47.924 -999 258 11.9 101960 95
2006-05-17 08:10:22 51°13.942 2°47.923 -999 251 11.9 101960 95
2006-05-17 08:10:28 51°13.942 2°47.92 -999 254 12 101970 95
2006-05-17 08:10:33 51°13.942 2°47.918 -999 253 12 101970 95
2006-05-17 08:10:38 51°13.941 2°47.916 -999 253 12 101970 95
2006-05-17 08:10:43 51°13.941 2°47.914 -999 258 12 101970 95
2006-05-17 08:10:48 51°13.941 2°47.911 -999 258 12 101960 95
2006-05-17 08:10:54 51°13.941 2°47.909 -999 257 12 101960 95
2006-05-17 08:10:58 51°13.94 2°47.907 -999 256 12 101970 95
2006-05-17 08:11:03 51°13.94 2°47.905 -999 259 12 101970 95
2006-05-17 08:11:08 51°13.94 2°47.903 -999 258 12 101970 95
2006-05-17 08:11:13 51°13.94 2°47.9 -999 256 12 101970 95
2006-05-17 08:11:18 51°13.939 2°47.898 -999 256 12 101960 95
2006-05-17 08:11:23 51°13.939 2°47.896 -999 255 12 101960 95
2006-05-17 08:11:28 51°13.939 2°47.894 -999 254 12 101960 95
2006-05-17 08:11:33 51°13.939 2°47.891 -999 255 12 101960 95
2006-05-17 08:11:38 51°13.939 2°47.887 -999 255 12 101960 95
2006-05-17 08:11:44 51°13.939 2°47.883 -999 258 12 101960 95
2006-05-17 08:11:48 51°13.94 2°47.879 -999 260 11.9 101960 95
2006-05-17 08:11:53 51°13.941 2°47.873 -999 261 11.9 101960 95
2006-05-17 08:11:58 51°13.943 2°47.865 -999 259 12 101960 95
2006-05-17 08:12:03 51°13.945 2°47.856 -999 258 12 101960 95
2006-05-17 08:12:08 51°13.949 2°47.847 -999 257 11.9 101960 95
2006-05-17 08:12:13 51°13.953 2°47.838 -999 259 11.9 101960 95
2006-05-17 08:12:18 51°13.957 2°47.828 -999 258 12 101960 95
2006-05-17 08:12:23 51°13.963 2°47.819 -999 260 12 101960 95
2006-05-17 08:12:28 51°13.969 2°47.81 -999 260 11.9 101960 95
2006-05-17 08:12:33 51°13.976 2°47.802 -999 256 11.9 101960 95
2006-05-17 08:12:38 51°13.984 2°47.796 -999 254 11.9 101970 95
2006-05-17 08:12:42 51°13.99 2°47.79 -999 243 11.9 101970 95
2006-05-17 08:12:47 51°13.998 2°47.785 -999 240 11.9 101960 95
2006-05-17 08:12:54 51°14.009 2°47.779 -999 223 11.9 101960 95
2006-05-17 08:12:58 51°14.015 2°47.777 -999 219 12 101960 95
2006-05-17 08:13:03 51°14.022 2°47.775 -999 210 12 101960 95
2006-05-17 08:13:08 51°14.029 2°47.773 -999 207 12 101970 95
2006-05-17 08:13:14 51°14.037 2°47.772 -999 109 12 101970 95
2006-05-17 08:13:18 51°14.042 2°47.772 -999 100 12 101970 95
2006-05-17 08:13:23 51°14.048 2°47.773 -999 127 12 101970 95
2006-05-17 08:13:28 51°14.053 2°47.774 -999 126 12 101970 95
2006-05-17 08:13:33 51°14.058 2°47.776 -999 133 12 101970 95
2006-05-17 08:13:38 51°14.063 2°47.779 -999 136 12 101970 95
2006-05-17 08:13:42 51°14.067 2°47.781 -999 125 12 101970 95
2006-05-17 08:13:48 51°14.072 2°47.785 -999 117 12 101970 95
2006-05-17 08:13:53 51°14.076 2°47.789 -999 111 12 101970 95
2006-05-17 08:13:58 51°14.079 2°47.792 -999 113 12 101970 95
2006-05-17 08:14:03 51°14.083 2°47.796 -999 115 12 101970 95
2006-05-17 08:14:08 51°14.086 2°47.8 -999 115 12 101970 95
2006-05-17 08:14:14 51°14.09 2°47.806 -999 117 12 101970 95
2006-05-17 08:14:18 51°14.092 2°47.809 -999 112 12 101970 95
2006-05-17 08:14:22 51°14.095 2°47.813 -999 111 12 101970 95
2006-05-17 08:14:28 51°14.098 2°47.819 -999 113 12 101970 95
2006-05-17 08:14:33 51°14.101 2°47.823 -999 108 12 101970 95
2006-05-17 08:14:38 51°14.103 2°47.828 -999 112 12 101970 95
2006-05-17 08:14:42 51°14.106 2°47.832 -999 108 12 101970 95
2006-05-17 08:14:47 51°14.108 2°47.837 -999 105 12 101970 95
2006-05-17 08:14:53 51°14.111 2°47.844 -999 111 12 101970 95
2006-05-17 08:14:57 51°14.113 2°47.848 -999 112 12 101970 95
2006-05-17 08:15:04 51°14.117 2°47.855 -999 111 12 101970 95
2006-05-17 08:15:07 51°14.118 2°47.858 -999 112 12 101970 95
2006-05-17 08:15:13 51°14.122 2°47.865 -999 110 12 101970 95
2006-05-17 08:15:18 51°14.124 2°47.87 -999 110 12 101970 95
2006-05-17 08:15:22 51°14.126 2°47.874 -999 112 12 101970 95
2006-05-17 08:15:28 51°14.129 2°47.88 -999 114 11.9 101970 95
2006-05-17 08:15:33 51°14.132 2°47.886 -999 110 11.9 101970 95
2006-05-17 08:15:38 51°14.134 2°47.891 -999 109 11.9 101970 95
2006-05-17 08:15:43 51°14.137 2°47.896 -999 111 11.9 101970 95
2006-05-17 08:15:48 51°14.14 2°47.901 -999 115 11.9 101960 95
2006-05-17 08:15:51 51°14.142 2°47.904 -999 118 11.9 101960 95
2006-05-17 08:15:58 51°14.145 2°47.911 -999 116 11.9 101970 95
2006-05-17 08:16:03 51°14.148 2°47.916 -999 112 11.9 101970 95
2006-05-17 08:16:08 51°14.151 2°47.921 -999 111 11.9 101970 95
2006-05-17 08:16:13 51°14.154 2°47.927 -999 113 11.9 101970 95
2006-05-17 08:16:18 51°14.157 2°47.931 -999 113 11.9 101960 95
2006-05-17 08:16:24 51°14.16 2°47.937 -999 112 11.9 101960 95
2006-05-17 08:16:28 51°14.163 2°47.941 -999 110 11.9 101970 95
2006-05-17 08:16:33 51°14.166 2°47.946 -999 113 11.9 101970 95
2006-05-17 08:16:38 51°14.168 2°47.951 -999 113 11.9 101970 95
2006-05-17 08:16:42 51°14.171 2°47.955 -999 111 11.9 101970 95
2006-05-17 08:16:48 51°14.174 2°47.96 -999 111 11.9 101960 95
2006-05-17 08:16:53 51°14.177 2°47.965 -999 122 11.9 101960 95
2006-05-17 08:16:58 51°14.18 2°47.969 -999 118 11.9 101970 95
2006-05-17 08:17:03 51°14.183 2°47.974 -999 110 11.9 101970 95
2006-05-17 08:17:08 51°14.186 2°47.978 -999 114 11.9 101960 95
2006-05-17 08:17:13 51°14.189 2°47.982 -999 124 11.9 101960 95
2006-05-17 08:17:18 51°14.193 2°47.987 -999 124 11.9 101970 95
2006-05-17 08:17:23 51°14.196 2°47.991 -999 124 11.9 101970 95
2006-05-17 08:17:28 51°14.199 2°47.995 -999 127 11.9 101970 95
2006-05-17 08:17:33 51°14.202 2°47.999 -999 124 11.9 101970 95
2006-05-17 08:17:38 51°14.205 2°48.003 -999 126 11.9 101960 95
2006-05-17 08:17:44 51°14.209 2°48.008 -999 131 11.9 101960 95
2006-05-17 08:17:48 51°14.212 2°48.011 -999 132 11.9 101970 95
2006-05-17 08:17:53 51°14.215 2°48.015 -999 129 11.9 101970 95
2006-05-17 08:17:58 51°14.218 2°48.02 -999 132 11.9 101960 95
2006-05-17 08:18:04 51°14.222 2°48.025 -999 120 11.9 101960 95
2006-05-17 08:18:08 51°14.224 2°48.028 -999 124 11.9 101970 95
2006-05-17 08:18:14 51°14.228 2°48.033 -999 131 11.9 101970 95
2006-05-17 08:18:18 51°14.23 2°48.037 -999 119 11.9 101970 95
2006-05-17 08:18:24 51°14.234 2°48.042 -999 123 11.9 101970 95
2006-05-17 08:18:27 51°14.235 2°48.045 -999 116 11.9 101960 95
2006-05-17 08:18:33 51°14.239 2°48.05 -999 123 11.9 101960 95
2006-05-17 08:18:38 51°14.241 2°48.055 -999 123 11.9 101970 95
2006-05-17 08:18:43 51°14.244 2°48.059 -999 123 11.9 101970 95
2006-05-17 08:18:48 51°14.247 2°48.064 -999 121 11.9 101960 95
2006-05-17 08:18:53 51°14.249 2°48.069 -999 114 11.9 101960 95
2006-05-17 08:18:58 51°14.252 2°48.073 -999 112 11.9 101970 95
2006-05-17 08:19:03 51°14.255 2°48.078 -999 116 11.9 101970 95
2006-05-17 08:19:08 51°14.257 2°48.083 -999 118 11.9 101970 95
2006-05-17 08:19:14 51°14.26 2°48.089 -999 117 11.9 101970 95
2006-05-17 08:19:18 51°14.262 2°48.093 -999 115 11.9 101960 95
2006-05-17 08:19:21 51°14.263 2°48.096 -999 120 11.9 101960 95
2006-05-17 08:19:27 51°14.266 2°48.102 -999 120 11.9 101960 95
2006-05-17 08:19:33 51°14.269 2°48.108 -999 119 11.9 101960 95
2006-05-17 08:19:38 51°14.271 2°48.113 -999 118 11.9 101960 95
2006-05-17 08:19:42 51°14.273 2°48.117 -999 118 11.9 101960 95
2006-05-17 08:19:48 51°14.275 2°48.123 -999 118 11.9 101960 95
2006-05-17 08:19:53 51°14.278 2°48.128 -999 117 11.9 101960 95
2006-05-17 08:19:58 51°14.28 2°48.133 -999 114 11.9 101960 95
2006-05-17 08:20:04 51°14.282 2°48.14 -999 121 11.9 101960 95
2006-05-17 08:20:09 51°14.284 2°48.145 -999 115 11.9 101960 95
2006-05-17 08:20:13 51°14.286 2°48.149 -999 114 11.9 101960 95
2006-05-17 08:20:18 51°14.288 2°48.155 -999 117 11.9 101960 95
2006-05-17 08:20:23 51°14.29 2°48.16 -999 114 11.9 101960 95
2006-05-17 08:20:28 51°14.292 2°48.165 -999 117 11.9 101960 95
2006-05-17 08:20:33 51°14.294 2°48.17 -999 110 11.9 101960 95
2006-05-17 08:20:37 51°14.296 2°48.175 -999 112 11.9 101960 95
2006-05-17 08:20:44 51°14.299 2°48.182 -999 113 11.9 101960 95
2006-05-17 08:20:48 51°14.301 2°48.186 -999 111 11.9 101960 95
2006-05-17 08:20:54 51°14.303 2°48.192 -999 108 11.9 101960 95
2006-05-17 08:20:58 51°14.305 2°48.197 -999 114 11.9 101960 95
2006-05-17 08:21:02 51°14.307 2°48.201 -999 102 11.9 101960 95
2006-05-17 08:21:08 51°14.309 2°48.207 -999 103 11.9 101960 95
2006-05-17 08:21:13 51°14.311 2°48.212 -999 105 11.9 101960 95
2006-05-17 08:21:18 51°14.314 2°48.217 -999 98 11.9 101960 95
2006-05-17 08:21:22 51°14.315 2°48.221 -999 99 11.9 101960 95
2006-05-17 08:21:27 51°14.318 2°48.226 -999 97 11.9 101960 95
2006-05-17 08:21:34 51°14.321 2°48.233 -999 99 11.9 101960 95
2006-05-17 08:21:38 51°14.323 2°48.237 -999 100 11.9 101960 95
2006-05-17 08:21:43 51°14.325 2°48.242 -999 105 11.9 101960 95
2006-05-17 08:21:48 51°14.327 2°48.246 -999 108 11.9 101960 95
2006-05-17 08:21:53 51°14.33 2°48.251 -999 99 11.9 101960 95
2006-05-17 08:21:58 51°14.332 2°48.256 -999 99 11.9 101960 95
2006-05-17 08:22:03 51°14.335 2°48.261 -999 100 11.9 101960 95
2006-05-17 08:22:08 51°14.337 2°48.265 -999 105 11.9 101960 95
2006-05-17 08:22:13 51°14.34 2°48.27 -999 105 11.9 101960 95
2006-05-17 08:22:18 51°14.342 2°48.275 -999 99 11.9 101960 95
2006-05-17 08:22:22 51°14.344 2°48.279 -999 96 11.9 101960 95
2006-05-17 08:22:28 51°14.347 2°48.284 -999 100 11.9 101960 95
2006-05-17 08:22:34 51°14.35 2°48.29 -999 110 11.9 101960 95
2006-05-17 08:22:38 51°14.352 2°48.293 -999 111 11.8 101960 95
2006-05-17 08:22:41 51°14.354 2°48.296 -999 109 11.8 101960 95
2006-05-17 08:22:47 51°14.357 2°48.302 -999 100 11.9 101960 95
2006-05-17 08:22:53 51°14.36 2°48.307 -999 101 11.9 101960 95
2006-05-17 08:22:58 51°14.362 2°48.312 -999 109 11.9 101960 95
2006-05-17 08:23:04 51°14.365 2°48.318 -999 109 11.9 101960 95
2006-05-17 08:23:08 51°14.367 2°48.322 -999 106 11.9 101960 95
2006-05-17 08:23:14 51°14.37 2°48.328 -999 110 11.9 101960 95
2006-05-17 08:23:18 51°14.372 2°48.332 -999 107 11.9 101960 95
2006-05-17 08:23:22 51°14.374 2°48.336 -999 104 11.9 101960 95
2006-05-17 08:23:29 51°14.378 2°48.342 -999 107 11.9 101960 95
2006-05-17 08:23:33 51°14.38 2°48.346 -999 121 11.9 101960 95
2006-05-17 08:23:38 51°14.382 2°48.351 -999 125 11.9 101960 95
2006-05-17 08:23:43 51°14.385 2°48.356 -999 107 11.9 101960 95
2006-05-17 08:23:48 51°14.387 2°48.361 -999 105 11.9 101960 95
2006-05-17 08:23:53 51°14.39 2°48.366 -999 102 11.9 101960 95
2006-05-17 08:23:57 51°14.392 2°48.37 -999 100 11.8 101960 95
2006-05-17 08:24:03 51°14.395 2°48.375 -999 105 11.8 101960 95
2006-05-17 08:24:08 51°14.397 2°48.381 -999 107 11.9 101960 95
2006-05-17 08:24:13 51°14.4 2°48.385 -999 97 11.9 101960 95
2006-05-17 08:24:18 51°14.402 2°48.39 -999 102 11.9 101960 95
2006-05-17 08:24:23 51°14.405 2°48.395 -999 109 11.9 101960 95
2006-05-17 08:24:28 51°14.407 2°48.4 -999 107 11.9 101960 95
2006-05-17 08:24:33 51°14.41 2°48.405 -999 110 11.9 101960 95
2006-05-17 08:24:38 51°14.412 2°48.41 -999 101 11.9 101960 96
2006-05-17 08:24:43 51°14.415 2°48.414 -999 112 11.9 101960 96
2006-05-17 08:24:48 51°14.418 2°48.419 -999 110 11.9 101960 96
2006-05-17 08:24:53 51°14.42 2°48.424 -999 116 11.9 101960 96
2006-05-17 08:24:58 51°14.423 2°48.429 -999 114 11.9 101960 96
2006-05-17 08:25:03 51°14.426 2°48.434 -999 116 11.9 101960 96
2006-05-17 08:25:09 51°14.429 2°48.44 -999 112 11.9 101950 96
2006-05-17 08:25:13 51°14.431 2°48.444 -999 126 11.9 101950 96
2006-05-17 08:25:17 51°14.433 2°48.448 -999 122 11.9 101960 96
2006-05-17 08:25:24 51°14.436 2°48.455 -999 116 11.9 101960 96
2006-05-17 08:25:28 51°14.438 2°48.459 -999 116 11.9 101960 96
2006-05-17 08:25:33 51°14.441 2°48.464 -999 120 11.9 101960 96
2006-05-17 08:25:38 51°14.443 2°48.469 -999 118 11.9 101960 96
2006-05-17 08:25:44 51°14.446 2°48.475 -999 113 11.9 101960 96
2006-05-17 08:25:48 51°14.448 2°48.479 -999 119 11.9 101960 96
2006-05-17 08:25:54 51°14.451 2°48.485 -999 108 11.9 101960 96
2006-05-17 08:25:58 51°14.453 2°48.489 -999 109 11.9 101960 95
2006-05-17 08:26:01 51°14.455 2°48.492 -999 110 11.9 101960 95
2006-05-17 08:26:07 51°14.458 2°48.498 -999 104 11.9 101960 95
2006-05-17 08:26:13 51°14.461 2°48.504 -999 103 11.9 101960 95
2006-05-17 08:26:18 51°14.463 2°48.509 -999 103 11.9 101960 96
2006-05-17 08:26:23 51°14.466 2°48.515 -999 104 11.9 101960 96
2006-05-17 08:26:28 51°14.468 2°48.52 -999 111 11.9 101960 96
2006-05-17 08:26:33 51°14.471 2°48.525 -999 105 11.9 101960 96
2006-05-17 08:26:38 51°14.473 2°48.53 -999 104 11.8 101960 96
2006-05-17 08:26:42 51°14.475 2°48.534 -999 100 11.8 101960 96
2006-05-17 08:26:48 51°14.478 2°48.54 -999 103 11.9 101950 96
2006-05-17 08:26:53 51°14.481 2°48.545 -999 111 11.9 101950 96
2006-05-17 08:26:58 51°14.483 2°48.55 -999 111 11.9 101960 96
2006-05-17 08:27:03 51°14.485 2°48.555 -999 113 11.9 101960 96
2006-05-17 08:27:08 51°14.487 2°48.56 -999 108 11.9 101960 96
2006-05-17 08:27:13 51°14.49 2°48.566 -999 97 11.9 101960 96
2006-05-17 08:27:18 51°14.492 2°48.571 -999 96 11.9 101960 96
2006-05-17 08:27:24 51°14.495 2°48.577 -999 101 11.9 101960 96
2006-05-17 08:27:28 51°14.497 2°48.581 -999 102 11.9 101960 95
2006-05-17 08:27:33 51°14.499 2°48.586 -999 100 11.9 101960 95
2006-05-17 08:27:38 51°14.502 2°48.592 -999 98 11.8 101960 95
2006-05-17 08:27:42 51°14.503 2°48.596 -999 108 11.8 101960 95
2006-05-17 08:27:48 51°14.506 2°48.602 -999 111 11.8 101960 95
2006-05-17 08:27:53 51°14.508 2°48.608 -999 105 11.8 101960 95
2006-05-17 08:27:58 51°14.51 2°48.613 -999 100 11.9 101960 95
2006-05-17 08:28:03 51°14.513 2°48.618 -999 113 11.9 101960 95
2006-05-17 08:28:08 51°14.515 2°48.624 -999 108 11.8 101960 96
2006-05-17 08:28:12 51°14.516 2°48.628 -999 111 11.8 101960 96
2006-05-17 08:28:18 51°14.519 2°48.634 -999 111 11.9 101960 96
2006-05-17 08:28:23 51°14.521 2°48.64 -999 103 11.9 101960 96
2006-05-17 08:28:28 51°14.523 2°48.645 -999 103 11.9 101960 96
2006-05-17 08:28:33 51°14.525 2°48.651 -999 108 11.9 101960 96
2006-05-17 08:28:38 51°14.527 2°48.656 -999 111 11.9 101960 96
2006-05-17 08:28:41 51°14.529 2°48.66 -999 107 11.9 101960 96
2006-05-17 08:28:48 51°14.531 2°48.667 -999 105 11.9 101950 96
2006-05-17 08:28:53 51°14.533 2°48.673 -999 118 11.9 101950 96
2006-05-17 08:28:58 51°14.535 2°48.679 -999 117 11.9 101960 96
2006-05-17 08:29:01 51°14.537 2°48.682 -999 107 11.9 101960 96
2006-05-17 08:29:07 51°14.539 2°48.688 -999 115 11.9 101950 96
2006-05-17 08:29:14 51°14.542 2°48.696 -999 114 11.9 101950 96
2006-05-17 08:29:18 51°14.543 2°48.7 -999 114 11.9 101950 96
2006-05-17 08:29:24 51°14.545 2°48.707 -999 104 11.9 101950 96
2006-05-17 08:29:27 51°14.547 2°48.71 -999 102 11.9 101960 96
2006-05-17 08:29:33 51°14.549 2°48.717 -999 106 11.9 101960 96
2006-05-17 08:29:38 51°14.551 2°48.722 -999 107 11.9 101960 96
2006-05-17 08:29:43 51°14.553 2°48.728 -999 107 11.9 101960 96
2006-05-17 08:29:48 51°14.555 2°48.733 -999 110 11.9 101960 96
2006-05-17 08:29:53 51°14.557 2°48.738 -999 116 11.9 101960 96
2006-05-17 08:29:58 51°14.559 2°48.743 -999 110 11.9 101960 96
2006-05-17 08:30:03 51°14.562 2°48.749 -999 103 11.9 101960 96
2006-05-17 08:30:08 51°14.564 2°48.754 -999 107 11.9 101960 96
2006-05-17 08:30:13 51°14.566 2°48.759 -999 107 11.9 101960 96
2006-05-17 08:30:18 51°14.568 2°48.764 -999 107 11.9 101960 96
2006-05-17 08:30:23 51°14.57 2°48.77 -999 109 11.9 101960 96
2006-05-17 08:30:28 51°14.572 2°48.775 -999 111 11.9 101960 96
2006-05-17 08:30:34 51°14.575 2°48.781 -999 114 11.9 101960 96
2006-05-17 08:30:38 51°14.577 2°48.786 -999 115 11.9 101960 96
2006-05-17 08:30:41 51°14.578 2°48.789 -999 114 11.9 101960 96
2006-05-17 08:30:47 51°14.58 2°48.795 -999 114 11.9 101960 96
2006-05-17 08:30:53 51°14.583 2°48.801 -999 114 11.9 101960 96
2006-05-17 08:30:58 51°14.585 2°48.807 -999 115 11.9 101960 95
2006-05-17 08:31:02 51°14.587 2°48.811 -999 112 11.9 101960 95
2006-05-17 08:31:08 51°14.589 2°48.817 -999 110 11.9 101960 95
2006-05-17 08:31:14 51°14.592 2°48.824 -999 103 11.9 101960 95
2006-05-17 08:31:18 51°14.594 2°48.828 -999 104 11.9 101960 95
2006-05-17 08:31:23 51°14.595 2°48.833 -999 101 11.9 101960 95
2006-05-17 08:31:28 51°14.598 2°48.839 -999 102 11.9 101960 95
2006-05-17 08:31:33 51°14.599 2°48.844 -999 105 11.9 101960 95
2006-05-17 08:31:38 51°14.602 2°48.849 -999 107 11.9 101960 95
2006-05-17 08:31:42 51°14.603 2°48.854 -999 113 11.9 101960 95
2006-05-17 08:31:48 51°14.606 2°48.86 -999 111 11.9 101960 95
2006-05-17 08:31:53 51°14.608 2°48.865 -999 110 11.9 101960 95
2006-05-17 08:31:58 51°14.61 2°48.87 -999 110 11.9 101960 95
2006-05-17 08:32:04 51°14.613 2°48.877 -999 107 11.9 101960 95
2006-05-17 08:32:08 51°14.614 2°48.881 -999 117 11.9 101960 95
2006-05-17 08:32:13 51°14.616 2°48.887 -999 99 11.9 101960 95
2006-05-17 08:32:18 51°14.618 2°48.892 -999 102 11.8 101960 95
2006-05-17 08:32:23 51°14.621 2°48.897 -999 97 11.8 101960 95
2006-05-17 08:32:29 51°14.623 2°48.904 -999 98 11.8 101960 95
2006-05-17 08:32:33 51°14.625 2°48.908 -999 107 11.8 101960 95
2006-05-17 08:32:38 51°14.627 2°48.913 -999 109 11.9 101950 96
2006-05-17 08:32:42 51°14.628 2°48.918 -999 111 11.9 101950 96
2006-05-17 08:32:49 51°14.631 2°48.925 -999 116 11.9 101950 96
2006-05-17 08:32:53 51°14.633 2°48.93 -999 104 11.9 101950 96
2006-05-17 08:32:58 51°14.635 2°48.935 -999 104 11.9 101950 95
2006-05-17 08:33:02 51°14.637 2°48.94 -999 113 11.9 101950 95
2006-05-17 08:33:08 51°14.64 2°48.947 -999 118 11.8 101960 95
2006-05-17 08:33:14 51°14.643 2°48.954 -999 109 11.8 101960 95
2006-05-17 08:33:18 51°14.644 2°48.959 -999 109 11.8 101950 95
2006-05-17 08:33:23 51°14.647 2°48.964 -999 107 11.8 101950 95
2006-05-17 08:33:28 51°14.648 2°48.97 -999 109 11.8 101950 95
2006-05-17 08:33:33 51°14.651 2°48.976 -999 113 11.8 101950 95
2006-05-17 08:33:38 51°14.653 2°48.982 -999 110 11.9 101950 95
2006-05-17 08:33:43 51°14.655 2°48.988 -999 120 11.9 101950 95
2006-05-17 08:33:48 51°14.658 2°48.994 -999 117 11.8 101960 95
2006-05-17 08:33:53 51°14.66 2°49 -999 118 11.8 101960 95
2006-05-17 08:33:58 51°14.662 2°49.006 -999 120 11.8 101960 95
2006-05-17 08:34:04 51°14.665 2°49.014 -999 121 11.8 101960 95
2006-05-17 08:34:08 51°14.667 2°49.018 -999 121 11.8 101950 95
2006-05-17 08:34:13 51°14.669 2°49.024 -999 118 11.8 101950 95
2006-05-17 08:34:18 51°14.672 2°49.03 -999 122 11.8 101960 95
2006-05-17 08:34:23 51°14.674 2°49.036 -999 123 11.8 101960 95
2006-05-17 08:34:28 51°14.676 2°49.042 -999 125 11.8 101960 95
2006-05-17 08:34:33 51°14.678 2°49.049 -999 122 11.8 101960 95
2006-05-17 08:34:38 51°14.681 2°49.055 -999 114 11.8 101950 95
2006-05-17 08:34:43 51°14.683 2°49.061 -999 116 11.8 101950 95
2006-05-17 08:34:49 51°14.685 2°49.068 -999 118 11.8 101960 95
2006-05-17 08:34:53 51°14.687 2°49.073 -999 121 11.8 101960 95
2006-05-17 08:34:57 51°14.689 2°49.078 -999 118 11.8 101960 95
2006-05-17 08:35:04 51°14.692 2°49.086 -999 114 11.8 101960 95
2006-05-17 08:35:08 51°14.694 2°49.091 -999 112 11.8 101960 95
2006-05-17 08:35:14 51°14.696 2°49.099 -999 122 11.8 101960 95
2006-05-17 08:35:19 51°14.698 2°49.105 -999 123 11.8 101950 95
2006-05-17 08:35:23 51°14.7 2°49.11 -999 119 11.8 101950 95
2006-05-17 08:35:28 51°14.702 2°49.116 -999 121 11.8 101960 95
2006-05-17 08:35:33 51°14.704 2°49.122 -999 115 11.8 101960 95
2006-05-17 08:35:38 51°14.706 2°49.128 -999 116 11.8 101960 95
2006-05-17 08:35:43 51°14.709 2°49.135 -999 113 11.8 101960 95
2006-05-17 08:35:48 51°14.711 2°49.141 -999 118 11.8 101960 95
2006-05-17 08:35:54 51°14.713 2°49.148 -999 114 11.8 101960 95
2006-05-17 08:35:58 51°14.715 2°49.153 -999 113 11.9 101960 95
2006-05-17 08:36:02 51°14.717 2°49.158 -999 116 11.9 101960 95
2006-05-17 08:36:08 51°14.719 2°49.166 -999 114 11.8 101960 95
2006-05-17 08:36:13 51°14.721 2°49.172 -999 109 11.8 101960 95
2006-05-17 08:36:18 51°14.723 2°49.178 -999 112 11.9 101960 95
2006-05-17 08:36:22 51°14.725 2°49.183 -999 114 11.9 101960 95
2006-05-17 08:36:27 51°14.727 2°49.189 -999 121 11.9 101960 95
2006-05-17 08:36:32 51°14.729 2°49.196 -999 120 11.9 101960 95
2006-05-17 08:36:37 51°14.731 2°49.202 -999 127 11.9 101960 95
2006-05-17 08:36:44 51°14.734 2°49.21 -999 129 11.9 101960 95
2006-05-17 08:36:48 51°14.736 2°49.215 -999 128 11.9 101960 95
2006-05-17 08:36:53 51°14.738 2°49.221 -999 121 11.9 101960 95
2006-05-17 08:36:58 51°14.74 2°49.228 -999 122 11.9 101960 95
2006-05-17 08:37:03 51°14.742 2°49.234 -999 108 11.9 101960 95
2006-05-17 08:37:07 51°14.744 2°49.239 -999 111 11.9 101960 95
2006-05-17 08:37:14 51°14.747 2°49.248 -999 116 11.9 101960 95
2006-05-17 08:37:17 51°14.748 2°49.251 -999 115 11.9 101960 95
2006-05-17 08:37:23 51°14.751 2°49.259 -999 118 11.9 101960 95
2006-05-17 08:37:28 51°14.753 2°49.265 -999 118 12 101960 95
2006-05-17 08:37:34 51°14.755 2°49.272 -999 120 12 101960 95
2006-05-17 08:37:39 51°14.757 2°49.279 -999 117 11.9 101960 95
2006-05-17 08:37:43 51°14.759 2°49.284 -999 115 11.9 101960 95
2006-05-17 08:37:48 51°14.761 2°49.29 -999 116 12 101960 95
2006-05-17 08:37:54 51°14.764 2°49.297 -999 114 12 101960 95
2006-05-17 08:37:57 51°14.765 2°49.301 -999 112 11.9 101960 95
2006-05-17 08:38:02 51°14.767 2°49.307 -999 112 11.9 101960 95
2006-05-17 08:38:08 51°14.77 2°49.314 -999 116 11.9 101960 95
2006-05-17 08:38:13 51°14.772 2°49.32 -999 106 11.9 101960 95
2006-05-17 08:38:17 51°14.774 2°49.326 -999 110 11.9 101960 95
2006-05-17 08:38:24 51°14.776 2°49.334 -999 116 11.9 101960 95
2006-05-17 08:38:28 51°14.778 2°49.339 -999 119 12 101960 95
2006-05-17 08:38:33 51°14.78 2°49.345 -999 122 12 101960 95
2006-05-17 08:38:37 51°14.782 2°49.35 -999 121 12 101960 95
2006-05-17 08:38:44 51°14.785 2°49.359 -999 114 12 101960 95
2006-05-17 08:38:48 51°14.787 2°49.364 -999 114 12 101960 95
2006-05-17 08:38:53 51°14.789 2°49.371 -999 119 12 101960 95
2006-05-17 08:38:58 51°14.791 2°49.377 -999 122 12 101960 95
2006-05-17 08:39:04 51°14.793 2°49.384 -999 119 12 101960 95
2006-05-17 08:39:07 51°14.794 2°49.388 -999 116 12 101960 95
2006-05-17 08:39:13 51°14.797 2°49.395 -999 111 12 101960 95
2006-05-17 08:39:18 51°14.799 2°49.401 -999 110 12 101960 95
2006-05-17 08:39:24 51°14.801 2°49.408 -999 122 12 101960 95
2006-05-17 08:39:28 51°14.803 2°49.413 -999 120 12 101960 95
2006-05-17 08:39:33 51°14.805 2°49.419 -999 116 12 101960 95
2006-05-17 08:39:38 51°14.807 2°49.425 -999 115 12.1 101960 95
2006-05-17 08:39:43 51°14.809 2°49.43 -999 119 12.1 101960 95
2006-05-17 08:39:47 51°14.81 2°49.435 -999 117 12.1 101960 95
2006-05-17 08:39:54 51°14.813 2°49.443 -999 118 12.1 101960 95
2006-05-17 08:39:58 51°14.814 2°49.448 -999 122 12.1 101960 95
2006-05-17 08:40:03 51°14.816 2°49.453 -999 125 12.1 101960 95
2006-05-17 08:40:08 51°14.818 2°49.459 -999 116 12.1 101960 95
2006-05-17 08:40:14 51°14.82 2°49.466 -999 114 12.1 101960 95
2006-05-17 08:40:18 51°14.822 2°49.47 -999 115 12.1 101960 95
2006-05-17 08:40:22 51°14.823 2°49.475 -999 122 12.1 101960 95
2006-05-17 08:40:28 51°14.825 2°49.482 -999 118 12.1 101960 95
2006-05-17 08:40:33 51°14.827 2°49.487 -999 111 12.1 101960 95
2006-05-17 08:40:38 51°14.829 2°49.493 -999 111 12.1 101960 95
2006-05-17 08:40:43 51°14.831 2°49.499 -999 114 12.1 101960 95
2006-05-17 08:40:48 51°14.832 2°49.504 -999 114 12.1 101960 95
2006-05-17 08:40:54 51°14.834 2°49.511 -999 112 12.1 101960 95
2006-05-17 08:40:57 51°14.835 2°49.514 -999 112 12.1 101960 95